Tracking 28790 objects as of 19-Apr-2024
HD Live streaming from Space Station
objects crossing your sky now

ELECTRON KICK STAGE R/B

Track ELECTRON KICK STAGE R/B now!
10-day predictions


NORAD ID: 51848
Int'l Code: 2020-020B
Perigee: 341.7 km
Apogee: 367.6 km
Inclination: 97.0 °
Period: 91.5 minutes
Semi major axis: 6725 km
RCS: Unknown
Launch date: February 28, 2022
Source: United States (US)
Launch site: Rocket Lab Launch Complex (RLLC)

Note: This is a ROCKET BODY
Your satellite tracking list
Your tracking list is empty




NASA's NSSDC Master Catalog

Two Line Element Set (TLE):
1 51848U 22020B   24110.00689777  .00342823  00000-0  23021-2 0  9996
2 51848  96.9867 133.9727 0019236 117.4178 242.9047 15.74000834119398
Source of the keplerian elements: AFSPC